timestamp,surface_pressure_avg,surface_temp_avg,battery_voltage,lat,long
2019-04-02 00:00:00+00:00,297.2214,1.19,12.89,47.84626,-54.09684
2019-04-02 00:10:00+00:00,294.2747,1.2,12.81,47.84626,-54.09684
2019-04-02 00:20:00+00:00,287.433,1.2,12.89,47.84626,-54.09684
2019-04-02 00:30:00+00:00,277.2048,1.26,12.89,47.84626,-54.09684
2019-04-02 00:40:00+00:00,275.7631,1.29,12.97,47.84626,-54.09684
2019-04-02 00:50:00+00:00,274.2814,1.29,12.97,47.84626,-54.09684
2019-04-02 01:00:00+00:00,265.4648,1.36,12.89,47.84626,-54.09684
2019-04-02 01:10:00+00:00,254.9664,1.38,12.81,47.84626,-54.09684
2019-04-02 01:20:00+00:00,252.0131,1.3,12.89,47.84626,-54.09684
2019-04-02 01:30:00+00:00,247.8014,1.3,12.89,47.84626,-54.09684
2019-04-02 01:40:00+00:00,240.9847,1.34,12.89,47.84626,-54.09684
2019-04-02 01:50:00+00:00,225.8814,1.38,12.97,47.84626,-54.09684
2019-04-02 02:00:00+00:00,220.9581,1.39,12.89,47.84626,-54.09684
2019-04-02 02:10:00+00:00,219.6914,1.4,12.81,47.84626,-54.09684
2019-04-02 02:20:00+00:00,215.4398,1.45,12.89,47.84626,-54.09684
2019-04-02 02:30:00+00:00,209.6598,1.57,12.89,47.84626,-54.09684
2019-04-02 02:40:00+00:00,209.4481,1.5,12.89,47.84626,-54.09684
2019-04-02 02:50:00+00:00,210.3348,1.47,12.89,47.84626,-54.09684
2019-04-02 03:00:00+00:00,206.7697,1.43,12.81,47.84626,-54.09684
2019-04-02 03:10:00+00:00,200.3581,1.49,12.73,47.84626,-54.09684
2019-04-02 03:20:00+00:00,200.5231,1.5,12.81,47.84626,-54.09684
2019-04-02 03:30:00+00:00,206.5331,1.5,12.89,47.84626,-54.09684
2019-04-02 03:40:00+00:00,203.6581,1.5,12.89,47.84626,-54.09684
2019-04-02 03:50:00+00:00,194.9848,1.6,12.89,47.84626,-54.09684
2019-04-02 04:00:00+00:00,201.5998,1.6,12.81,47.84626,-54.09684
2019-04-02 04:10:00+00:00,210.4797,1.55,12.73,47.84626,-54.09684
2019-04-02 04:20:00+00:00,202.1064,1.54,12.81,47.84626,-54.09684
2019-04-02 04:30:00+00:00,197.5381,1.55,12.81,47.84626,-54.09684
2019-04-02 04:40:00+00:00,210.1098,1.54,12.89,47.84626,-54.09684
2019-04-02 04:50:00+00:00,217.2431,1.55,12.89,47.84626,-54.09684
2019-04-02 05:00:00+00:00,215.5581,1.56,12.81,47.84626,-54.09684
2019-04-02 05:10:00+00:00,215.7297,1.57,12.73,47.84626,-54.09684
2019-04-02 05:20:00+00:00,222.6064,1.56,12.81,47.84626,-54.09684
2019-04-02 05:30:00+00:00,229.3731,1.6,12.81,47.84626,-54.09684
2019-04-02 05:40:00+00:00,232.0531,1.69,12.81,47.84626,-54.09684
2019-04-02 05:50:00+00:00,235.7848,1.7,12.81,47.84626,-54.09684
2019-04-02 06:00:00+00:00,241.7681,1.75,12.73,47.84626,-54.09684
2019-04-02 06:10:00+00:00,244.3181,1.78,12.73,47.84626,-54.09684
2019-04-02 06:20:00+00:00,244.973,1.8,12.81,47.84626,-54.09684
2019-04-02 06:30:00+00:00,252.7731,1.84,12.81,47.84626,-54.09684
2019-04-02 06:40:00+00:00,260.2097,1.9,12.81,47.84626,-54.09684
2019-04-02 06:50:00+00:00,261.4547,1.9,12.81,47.84626,-54.09684
2019-04-02 07:00:00+00:00,264.0364,1.9,12.73,47.84626,-54.09684
2019-04-02 07:10:00+00:00,271.1681,1.9,12.73,47.84626,-54.09684
2019-04-02 07:20:00+00:00,275.8014,1.9,12.81,47.84626,-54.09684
2019-04-02 07:30:00+00:00,278.1948,1.9,12.81,47.84626,-54.09684
2019-04-02 07:40:00+00:00,284.5597,1.9,12.81,47.84626,-54.09684
2019-04-02 07:50:00+00:00,289.0797,1.9,12.81,47.84626,-54.09684
2019-04-02 08:00:00+00:00,293.673,1.8,12.73,47.84626,-54.09684
2019-04-02 08:10:00+00:00,297.3547,1.79,12.65,47.84626,-54.09684
2019-04-02 08:20:00+00:00,300.193,1.6,12.81,47.84626,-54.09684
2019-04-02 08:30:00+00:00,304.5413,1.56,12.81,47.84626,-54.09684
2019-04-02 08:40:00+00:00,310.0547,1.5,12.81,47.84626,-54.09684
2019-04-02 08:50:00+00:00,309.573,1.5,12.81,47.84626,-54.09684
2019-04-02 09:00:00+00:00,313.403,1.5,12.73,47.84626,-54.09684
2019-04-02 09:10:00+00:00,317.8963,1.5,12.65,47.84626,-54.09684
2019-04-02 09:20:00+00:00,318.513,1.5,12.73,47.84626,-54.09684
2019-04-02 09:30:00+00:00,319.4564,1.55,12.81,47.84626,-54.09684
2019-04-02 09:40:00+00:00,326.8513,1.59,12.81,47.84626,-54.09684
2019-04-02 09:50:00+00:00,325.8796,1.6,12.81,47.84626,-54.09684
2019-04-02 10:00:00+00:00,320.0212,1.64,12.81,47.84626,-54.09684
2019-04-02 10:10:00+00:00,321.5546,1.66,12.73,47.84626,-54.09684
2019-04-02 10:20:00+00:00,328.3346,1.65,12.89,47.84626,-54.09684
2019-04-02 10:30:00+00:00,325.2947,1.65,12.97,47.84626,-54.09684
2019-04-02 10:40:00+00:00,320.2214,1.66,13.05,47.84626,-54.09684
2019-04-02 10:50:00+00:00,321.9063,1.67,13.13,47.84626,-54.09684
2019-04-02 11:00:00+00:00,321.4863,1.67,13.53,47.84626,-54.09684
2019-04-02 11:10:00+00:00,314.7413,1.68,14.24,47.84626,-54.09684
2019-04-02 11:20:00+00:00,311.1514,1.69,15.35,47.84626,-54.09684
2019-04-02 11:30:00+00:00,314.2029,1.69,16.15,47.84626,-54.09684
2019-04-02 11:40:00+00:00,314.278,1.69,14.88,47.84626,-54.09684
2019-04-02 11:50:00+00:00,310.1113,1.6,14.56,47.84626,-54.09684
2019-04-02 12:00:00+00:00,308.933,1.6,14.72,47.84626,-54.09684
2019-04-02 12:10:00+00:00,304.313,1.5,15.6,47.84626,-54.09684
2019-04-02 12:20:00+00:00,298.9031,1.5,15.2,47.84626,-54.09684
2019-04-02 12:30:00+00:00,294.223,1.5,15.67,47.84626,-54.09684
2019-04-02 12:40:00+00:00,286.2114,1.58,14.96,47.84626,-54.09684
2019-04-02 12:50:00+00:00,274.8248,1.6,15.44,47.84626,-54.09684
2019-04-02 13:00:00+00:00,271.4514,1.6,15.11,47.84626,-54.09684
2019-04-02 13:10:00+00:00,269.5847,1.6,14.96,47.84626,-54.09684
2019-04-02 13:20:00+00:00,261.4231,1.6,15.04,47.84626,-54.09684
2019-04-02 13:30:00+00:00,252.0281,1.6,15.2,47.84626,-54.09684
2019-04-02 13:40:00+00:00,247.2781,1.6,14.88,47.84626,-54.09684
2019-04-02 13:50:00+00:00,235.3548,1.6,15.11,47.84626,-54.09684
2019-04-02 14:00:00+00:00,219.8865,1.59,14.96,47.84626,-54.09684
2019-04-02 14:10:00+00:00,214.3047,1.58,14.96,47.84626,-54.09684
2019-04-02 14:20:00+00:00,216.8498,1.5,14.96,47.84626,-54.09684
2019-04-02 14:30:00+00:00,210.6398,1.5,14.96,47.84626,-54.09684
2019-04-02 14:40:00+00:00,198.5865,1.5,14.96,47.84626,-54.09684
2019-04-02 14:50:00+00:00,197.3731,1.5,14.96,47.84626,-54.09684
2019-04-02 15:00:00+00:00,199.7781,1.5,14.8,47.84626,-54.09684
2019-04-02 15:10:00+00:00,190.6848,1.5,14.8,47.84626,-54.09684
2019-04-02 15:20:00+00:00,192.4098,1.5,14.88,47.84626,-54.09684
2019-04-02 15:30:00+00:00,196.5915,1.5,14.88,47.84626,-54.09684
2019-04-02 15:40:00+00:00,185.3265,1.5,14.88,47.84626,-54.09684
2019-04-02 15:50:00+00:00,180.5665,1.53,14.8,47.84626,-54.09684
2019-04-02 16:00:00+00:00,189.7731,1.5,14.72,47.84626,-54.09684
2019-04-02 16:10:00+00:00,190.9631,1.5,14.64,47.84626,-54.09684
2019-04-02 16:20:00+00:00,183.1731,1.52,14.8,47.84626,-54.09684
2019-04-02 16:30:00+00:00,186.3914,1.59,14.72,47.84626,-54.09684
2019-04-02 16:40:00+00:00,195.3364,1.58,14.8,47.84626,-54.09684
2019-04-02 16:50:00+00:00,192.3648,1.56,14.72,47.84626,-54.09684
2019-04-02 17:00:00+00:00,189.8965,1.55,14.64,47.84626,-54.09684
2019-04-02 17:10:00+00:00,195.9881,1.59,14.56,47.84626,-54.09684
2019-04-02 17:20:00+00:00,201.1181,1.6,14.48,47.84626,-54.09684
2019-04-02 17:30:00+00:00,203.933,1.6,14.56,47.84626,-54.09684
2019-04-02 17:40:00+00:00,206.7747,1.6,14.56,47.84626,-54.09684
2019-04-02 17:50:00+00:00,215.5214,1.4,14.48,47.84626,-54.09684
2019-04-02 18:00:00+00:00,218.3797,1.39,14.4,47.84626,-54.09684
2019-04-02 18:10:00+00:00,214.7682,1.48,14.32,47.84626,-54.09684
2019-04-02 18:20:00+00:00,218.8081,1.4,14.4,47.84626,-54.09684
2019-04-02 18:30:00+00:00,230.8314,1.24,14.4,47.84626,-54.09684
2019-04-02 18:40:00+00:00,233.9914,1.31,14.4,47.84626,-54.09684
2019-04-02 18:50:00+00:00,233.5397,1.49,14.32,47.84626,-54.09684
2019-04-02 19:00:00+00:00,238.1931,1.5,14.32,47.84626,-54.09684
2019-04-02 19:10:00+00:00,245.1898,1.5,14.24,47.84626,-54.09684
2019-04-02 19:20:00+00:00,247.1747,1.5,14.24,47.84626,-54.09684
2019-04-02 19:30:00+00:00,250.2197,1.53,14.24,47.84626,-54.09684
2019-04-02 19:40:00+00:00,258.5414,1.5,14.24,47.84626,-54.09684
2019-04-02 19:50:00+00:00,264.3397,1.59,14.32,47.84626,-54.09684
2019-04-02 20:00:00+00:00,266.9114,1.6,14.24,47.84626,-54.09684
2019-04-02 20:10:00+00:00,270.1497,1.6,14.08,47.84626,-54.09684
2019-04-02 20:20:00+00:00,275.933,1.35,14.08,47.84626,-54.09684
2019-04-02 20:30:00+00:00,286.603,1.2,14.08,47.84626,-54.09684
2019-04-02 20:40:00+00:00,293.948,1.24,14.16,47.84626,-54.09684
2019-04-02 20:50:00+00:00,296.793,1.3,14.08,47.84626,-54.09684
2019-04-02 21:00:00+00:00,302.8881,1.35,14.0,47.84626,-54.09684
2019-04-02 21:10:00+00:00,309.813,1.39,13.84,47.84626,-54.09684
2019-04-02 21:20:00+00:00,309.0463,1.39,13.84,47.84626,-54.09684
2019-04-02 21:30:00+00:00,312.1847,1.38,13.84,47.84626,-54.09684
2019-04-02 21:40:00+00:00,321.503,1.3,13.76,47.84626,-54.09684
2019-04-02 21:50:00+00:00,328.1979,1.25,13.76,47.84626,-54.09684
2019-04-02 22:00:00+00:00,322.488,1.43,13.6,47.84626,-54.09684
2019-04-02 22:10:00+00:00,323.5163,1.48,13.44,47.84626,-54.09684
2019-04-02 22:20:00+00:00,330.133,1.4,13.44,47.84626,-54.09684
2019-04-02 22:30:00+00:00,328.3864,1.43,13.37,47.84626,-54.09684
2019-04-02 22:40:00+00:00,324.4213,1.4,13.37,47.84626,-54.09684
2019-04-02 22:50:00+00:00,330.7463,1.4,13.29,47.84626,-54.09684
2019-04-02 23:00:00+00:00,332.5113,1.37,13.21,47.84626,-54.09684
2019-04-02 23:10:00+00:00,322.3813,1.3,13.05,47.84626,-54.09684
2019-04-02 23:20:00+00:00,319.6547,1.3,13.13,47.84626,-54.09684
2019-04-02 23:30:00+00:00,326.7413,1.3,13.05,47.84626,-54.09684
2019-04-02 23:40:00+00:00,325.4846,1.29,13.05,47.84626,-54.09684
2019-04-02 23:50:00+00:00,318.5864,1.24,13.05,47.84626,-54.09684
